Location: Caltech
(34.1382°N, 118.1253°W)
Time: 15:32:41
(UTC-07:00)

Tiros 1 despin weight - All Passes

Search period start: 30 August 2015 00:00
Search period end: 09 September 2015 00:00
Orbit: 597 x 646 km, 48.2° (Epoch: 30 August)

Date Brightness Start Highest point End Pass type
(mag) Time Alt. Az. Time Alt. Az. Time Alt. Az.
30 Aug - 07:19:55 10° S 07:23:24 23° SE 07:26:56 10° E daylight
30 Aug - 09:00:26 10° WSW 09:04:49 54° NNW 09:09:10 10° NE daylight
30 Aug - 10:44:15 10° WNW 10:47:13 17° NNW 10:50:07 10° NNE daylight
30 Aug - 12:28:04 10° NNW 12:30:14 13° N 12:32:27 10° NE daylight
30 Aug - 14:09:13 10° NW 14:13:02 28° NNE 14:16:54 10° E daylight
30 Aug - 15:50:31 10° WNW 15:54:53 58° SW 15:59:17 10° SE daylight
31 Aug - 07:36:43 10° SSW 07:41:04 50° SE 07:45:23 10° ENE daylight
31 Aug - 09:18:52 10° W 09:22:50 30° NNW 09:26:46 10° NE daylight
31 Aug - 11:03:17 10° NW 11:05:36 14° N 11:07:51 10° NNE daylight
31 Aug - 12:45:52 10° NNW 12:48:38 16° NNE 12:51:26 10° NE daylight
31 Aug - 14:26:48 10° NW 14:31:06 48° NNE 14:35:25 10° ESE daylight
31 Aug - 16:08:50 10° WNW 16:12:34 26° SW 16:16:17 10° S daylight
01 Sep - 06:15:01 10° SSE 06:17:34 15° SE 06:20:16 10° E daylight
01 Sep - 07:54:21 10° WSW 07:58:51 77° NW 08:03:18 10° NE daylight
01 Sep - 09:37:42 10° WNW 09:41:02 20° NNW 09:44:19 10° NNE daylight
01 Sep - 11:21:57 10° NNW 11:24:00 13° N 11:26:05 10° NNE daylight
01 Sep - 13:03:26 10° NNW 13:06:56 22° NNE 13:10:27 10° ENE daylight
01 Sep - 14:44:32 10° NW 14:48:59 85° SW 14:53:27 10° SE daylight
01 Sep - 16:28:35 10° WSW 16:30:10 11° SW 16:31:33 10° SSW daylight
02 Sep - 06:31:08 10° SSW 06:35:11 34° SE 06:39:15 10° ENE daylight
02 Sep - 08:12:33 10° W 08:16:47 40° NNW 08:20:59 10° NE daylight
02 Sep - 09:56:44 10° NW 09:59:21 15° N 10:01:56 10° NNE daylight
02 Sep - 11:39:59 10° NNW 11:42:25 14° N 11:44:54 10° NE daylight
02 Sep - 13:20:59 10° NW 13:25:04 35° NNE 13:29:10 10° E daylight
02 Sep - 15:02:35 10° WNW 15:06:43 38° SW 15:10:51 10° SSE daylight
03 Sep - 06:48:24 10° SW 06:52:54 74° SE 06:57:22 10° NE daylight
03 Sep - 08:31:12 10° WNW 08:34:54 24° NNW 08:38:32 10° NNE daylight
03 Sep - 10:15:38 10° NNW 10:17:46 13° N 10:19:52 10° NNE daylight
03 Sep - 11:57:38 10° NNW 12:00:46 19° NNE 12:03:56 10° ENE daylight
03 Sep - 13:38:37 10° NW 13:43:03 67° NE 13:47:27 10° ESE daylight
03 Sep - 15:21:19 10° W 15:24:21 18° SW 15:27:16 10° S daylight
04 Sep - 05:25:48 10° S 05:29:20 23° SE 05:32:55 10° E visible
04 Sep - 07:06:19 10° WSW 07:10:45 54° NNW 07:15:09 10° NE daylight
04 Sep - 08:50:09 10° WNW 08:53:09 17° NNW 08:56:05 10° NNE daylight
04 Sep - 10:33:59 10° NNW 10:36:11 13° N 10:38:24 10° NE daylight
04 Sep - 12:15:11 10° NW 12:18:59 27° NNE 12:22:49 10° E daylight
04 Sep - 13:56:29 10° WNW 14:00:50 58° SW 14:05:11 10° SE daylight
05 Sep - 05:42:36 10° SSW 05:46:59 50° SE 05:51:21 10° ENE visible
05 Sep - 07:24:45 10° W 07:28:47 31° NNW 07:32:44 10° NE daylight
05 Sep - 09:09:11 10° NW 09:11:31 14° N 09:13:49 10° NNE daylight
05 Sep - 10:51:48 10° NNW 10:54:34 16° NNE 10:57:22 10° NE daylight
05 Sep - 12:32:45 10° NW 12:37:02 47° NNE 12:41:20 10° ESE daylight
05 Sep - 14:14:47 10° WNW 14:18:31 26° SW 14:22:11 10° S daylight
06 Sep - 04:20:52 10° SSE 04:23:28 16° SE 04:26:14 10° E visible
06 Sep - 06:00:13 10° WSW 06:04:46 77° NW 06:09:15 10° NE visible
06 Sep - 07:43:34 10° WNW 07:46:58 20° NNW 07:50:17 10° NNE daylight
06 Sep - 09:27:49 10° NNW 09:29:55 13° N 09:32:02 10° NNE daylight
06 Sep - 11:09:22 10° NNW 11:12:51 22° NNE 11:16:22 10° ENE daylight
06 Sep - 12:50:29 10° NW 12:54:55 85° SW 12:59:21 10° SE daylight
06 Sep - 14:34:33 10° WSW 14:36:06 11° SW 14:37:25 10° SSW daylight
07 Sep - 04:36:59 10° SSW 04:41:05 34° SE 04:45:12 10° ENE visible
07 Sep - 06:18:24 10° W 06:22:41 40° NNW 06:26:56 10° NE daylight
07 Sep - 08:02:36 10° NW 08:05:17 15° N 08:07:54 10° NNE daylight
07 Sep - 09:45:53 10° NNW 09:48:20 14° N 09:50:49 10° NE daylight
07 Sep - 11:26:54 10° NW 11:30:59 35° NNE 11:35:04 10° E daylight
07 Sep - 13:08:31 10° WNW 13:12:38 38° SW 13:16:45 10° SSE daylight
08 Sep - 04:54:14 10° SW 04:58:48 74° SE 05:03:18 10° NE visible
08 Sep - 06:37:02 10° W 06:40:48 25° NNW 06:44:29 10° NNE daylight
08 Sep - 08:21:29 10° NNW 08:23:40 13° N 08:25:49 10° NNE daylight
08 Sep - 10:03:32 10° NNW 10:06:40 19° NNE 10:09:51 10° ENE daylight
08 Sep - 11:44:32 10° NW 11:48:57 67° NE 11:53:21 10° ESE daylight
08 Sep - 13:27:15 10° W 13:30:16 18° SW 13:33:08 10° S daylight
